星链-11439 (STARLINK-11439)

导读

STARLINK-11439是美国星链互联网项目中的一颗卫星,于2024年12月23日发射。该卫星隶属于SpaceX公司部署的近地轨道卫星星座,星链旨在为全球提供高速低延迟卫星互联网服务。作为星链扩容组网的组成部分,它承担着增强星座覆盖容量、补充全球网络服务能力的任务,进一步完善了星链低轨卫星通信网络的架构。

基本信息
目录编号:
62419
目录名称:
STARLINK-11439
国际标识:
2024-249L
轨道中心:
EARTH
卫星名称:
星链-11439
卫星全名:
星链-11439 (STARLINK-11439)
卫星状态:
已陨落 最后检测时间 2026-02-13
发射日期:
2024-12-23 UTC
国别 :
美国 (US)
星等 :
--
轨道信息
数据来源 国际轨道数据
星历时间: 2026-02-13T11:11:58+0800
轨道信息已过期121天
半长轴: 6592.306km
偏心率: 0.0008777
轨道倾角: 42.995°
近地点辐角 195.653°
升交点赤经 312.490°
平近点角 164.409°
近地点: 208.382km
远地点: 219.956km
周期: 88.780分钟
每日圈数: 16.219846
详细信息
固有亮度:
5
最大亮度:
2.5
卫星平台:
Starlink V1.0
覆盖范围:
全球
运营商:
太空探索技术公司
运营商所在国:
美国
制造商(研发单位):
太空探索技术公司
制造商所在国:
美国
使用方式:
暂无
卫星简介
Starlink 计划是 SpaceX 推出的全球卫星互联网项目,通过发射低轨道卫星,为全球尤其是偏远地区提供高速、低延迟的互联网服务。自 2019 年起,Starlink 已部署数千颗卫星,旨在缩小全球数字鸿沟,推动互联网普及。该项目还为军事、航空等行业提供通信支持,带来广泛经济效益。